sat.trackr.live / text

‹ back to catalog

STARLINK-32941

NORAD 63119 · 2025-039R

PAYLOAD ACTIVE UNKNOWN

§ Identity

Operator
Country
US
Launch date
2025-02-27
Launch site
AFETR
Launch vehicle
Mass (kg)
RCS (m²)

Purposes: comms

External: N2YO · Heavens-Above · Gunter

§ Orbital elements

Epoch: 2026-05-25T02:20:13.591392Z

Period
94.27 min
Inclination
42.9994°
Eccentricity
0.0001073
Mean motion
15.27587080 rev/d
Perigee alt
482.3 km
Apogee alt
483.8 km
Semi-major
6,861.2 km
B*
3.0942e-4
RAAN
289.8988°
Arg perigee
39.5405°
Mean anomaly
320.5524°
Rev number
6,988

§ Raw data

STARLINK-329411 63119U 25039R   26145.09737953  .00008264  00000+0  30942-3 0  99902 63119  42.9994 289.8988 0001073  39.5405 320.5524 15.27587080 69883

JSON: /api/v1/satellites/63119 · /tle

For live sub-satellite position, see the globe view (requires WebGL).

§ Visibility from observer

Set your observer location to see the next 7 days of passes ≥ 10°. The values pass through the URL so the page stays shareable.

No JS? Fill the form by hand. The geolocation button needs JavaScript.